﻿測定場所 (Monitoring sites),日付 (Measurement date),時間 (Measurement time),線量率 最大値 (max) μGy/h,線量率 最小値 (min) μGy/h,線量率 平均値 (average) μGy/h,
足立 (Adachi),2019-10-27,23:01～24:00,0.0315,0.0273,0.0295,
足立 (Adachi),2019-10-27,22:01～23:00,0.0310,0.0269,0.0296,
足立 (Adachi),2019-10-27,21:01～22:00,0.0318,0.0282,0.0297,
足立 (Adachi),2019-10-27,20:01～21:00,0.0312,0.0280,0.0297,
足立 (Adachi),2019-10-27,19:01～20:00,0.0314,0.0276,0.0297,
足立 (Adachi),2019-10-27,18:01～19:00,0.0309,0.0274,0.0295,
足立 (Adachi),2019-10-27,17:01～18:00,0.0315,0.0269,0.0290,
足立 (Adachi),2019-10-27,16:01～17:00,0.0314,0.0270,0.0294,
足立 (Adachi),2019-10-27,15:01～16:00,0.0311,0.0279,0.0295,
足立 (Adachi),2019-10-27,14:01～15:00,0.0317,0.0279,0.0296,
足立 (Adachi),2019-10-27,13:01～14:00,0.0313,0.0278,0.0294,
足立 (Adachi),2019-10-27,12:01～13:00,0.0318,0.0275,0.0295,
足立 (Adachi),2019-10-27,11:01～12:00,0.0314,0.0280,0.0299,
足立 (Adachi),2019-10-27,10:01～11:00,0.0315,0.0280,0.0300,
足立 (Adachi),2019-10-27,09:01～10:00,0.0321,0.0281,0.0296,
足立 (Adachi),2019-10-27,08:01～09:00,0.0314,0.0271,0.0295,
足立 (Adachi),2019-10-27,07:01～08:00,0.0318,0.0274,0.0296,
足立 (Adachi),2019-10-27,06:01～07:00,0.0320,0.0282,0.0299,
足立 (Adachi),2019-10-27,05:01～06:00,0.0324,0.0277,0.0296,
足立 (Adachi),2019-10-27,04:01～05:00,0.0316,0.0275,0.0296,
足立 (Adachi),2019-10-27,03:01～04:00,0.0313,0.0273,0.0294,
足立 (Adachi),2019-10-27,02:01～03:00,0.0317,0.0272,0.0296,
足立 (Adachi),2019-10-27,01:01～02:00,0.0309,0.0277,0.0293,
足立 (Adachi),2019-10-27,00:01～01:00,0.0310,0.0271,0.0293,
足立 (Adachi),2019-10-26,23:01～24:00,0.0318,0.0272,0.0294,
足立 (Adachi),2019-10-26,22:01～23:00,0.0305,0.0274,0.0290,
足立 (Adachi),2019-10-26,21:01～22:00,0.0312,0.0272,0.0291,
足立 (Adachi),2019-10-26,20:01～21:00,0.0309,0.0271,0.0291,
足立 (Adachi),2019-10-26,19:01～20:00,0.0316,0.0265,0.0290,
足立 (Adachi),2019-10-26,18:01～19:00,0.0311,0.0272,0.0290,
足立 (Adachi),2019-10-26,17:01～18:00,0.0308,0.0262,0.0286,
足立 (Adachi),2019-10-26,16:01～17:00,0.0302,0.0267,0.0288,
足立 (Adachi),2019-10-26,15:01～16:00,0.0304,0.0271,0.0286,
足立 (Adachi),2019-10-26,14:01～15:00,0.0315,0.0269,0.0290,
足立 (Adachi),2019-10-26,13:01～14:00,0.0302,0.0271,0.0286,
足立 (Adachi),2019-10-26,12:01～13:00,0.0304,0.0270,0.0286,
足立 (Adachi),2019-10-26,11:01～12:00,0.0311,0.0270,0.0291,
足立 (Adachi),2019-10-26,10:01～11:00,0.0314,0.0273,0.0295,
足立 (Adachi),2019-10-26,09:01～10:00,0.0311,0.0267,0.0292,
足立 (Adachi),2019-10-26,08:01～09:00,0.0313,0.0272,0.0290,
足立 (Adachi),2019-10-26,07:01～08:00,0.0309,0.0260,0.0286,
足立 (Adachi),2019-10-26,06:01～07:00,0.0308,0.0267,0.0288,
足立 (Adachi),2019-10-26,05:01～06:00,0.0308,0.0273,0.0290,
足立 (Adachi),2019-10-26,04:01～05:00,0.0307,0.0269,0.0289,
足立 (Adachi),2019-10-26,03:01～04:00,0.0314,0.0270,0.0291,
足立 (Adachi),2019-10-26,02:01～03:00,0.0312,0.0273,0.0290,
足立 (Adachi),2019-10-26,01:01～02:00,0.0313,0.0275,0.0291,
足立 (Adachi),2019-10-26,00:01～01:00,0.0310,0.0274,0.0289,
足立 (Adachi),2019-10-25,23:01～24:00,0.0308,0.0272,0.0288,
足立 (Adachi),2019-10-25,22:01～23:00,0.0316,0.0273,0.0289,
足立 (Adachi),2019-10-25,21:01～22:00,0.0320,0.0264,0.0290,
足立 (Adachi),2019-10-25,20:01～21:00,0.0318,0.0283,0.0298,
足立 (Adachi),2019-10-25,19:01～20:00,0.0350,0.0292,0.0318,
足立 (Adachi),2019-10-25,18:01～19:00,0.0340,0.0291,0.0316,
足立 (Adachi),2019-10-25,17:01～18:00,0.0396,0.0312,0.0350,
足立 (Adachi),2019-10-25,16:01～17:00,0.0557,0.0384,0.0464,
足立 (Adachi),2019-10-25,15:01～16:00,0.0581,0.0411,0.0505,
足立 (Adachi),2019-10-25,14:01～15:00,0.0469,0.0374,0.0414,
足立 (Adachi),2019-10-25,13:01～14:00,0.0440,0.0380,0.0408,
足立 (Adachi),2019-10-25,12:01～13:00,0.0462,0.0378,0.0423,
足立 (Adachi),2019-10-25,11:01～12:00,0.0477,0.0405,0.0439,
足立 (Adachi),2019-10-25,10:01～11:00,0.0456,0.0377,0.0422,
足立 (Adachi),2019-10-25,09:01～10:00,0.0457,0.0377,0.0419,
足立 (Adachi),2019-10-25,08:01～09:00,0.0479,0.0413,0.0448,
足立 (Adachi),2019-10-25,07:01～08:00,0.0499,0.0414,0.0454,
足立 (Adachi),2019-10-25,06:01～07:00,0.0451,0.0347,0.0398,
足立 (Adachi),2019-10-25,05:01～06:00,0.0350,0.0294,0.0314,
足立 (Adachi),2019-10-25,04:01～05:00,0.0317,0.0285,0.0300,
足立 (Adachi),2019-10-25,03:01～04:00,0.0308,0.0270,0.0291,
足立 (Adachi),2019-10-25,02:01～03:00,0.0321,0.0274,0.0295,
足立 (Adachi),2019-10-25,01:01～02:00,0.0338,0.0288,0.0312,
足立 (Adachi),2019-10-25,00:01～01:00,0.0319,0.0275,0.0300,
足立 (Adachi),2019-10-24,23:01～24:00,0.0347,0.0294,0.0320,
足立 (Adachi),2019-10-24,22:01～23:00,0.0346,0.0308,0.0328,
足立 (Adachi),2019-10-24,21:01～22:00,0.0335,0.0273,0.0303,
足立 (Adachi),2019-10-24,20:01～21:00,0.0314,0.0273,0.0291,
足立 (Adachi),2019-10-24,19:01～20:00,0.0301,0.0262,0.0287,
足立 (Adachi),2019-10-24,18:01～19:00,0.0311,0.0270,0.0286,
足立 (Adachi),2019-10-24,17:01～18:00,0.0306,0.0272,0.0286,
足立 (Adachi),2019-10-24,16:01～17:00,0.0305,0.0270,0.0285,
足立 (Adachi),2019-10-24,15:01～16:00,0.0305,0.0265,0.0286,
足立 (Adachi),2019-10-24,14:01～15:00,0.0304,0.0268,0.0286,
足立 (Adachi),2019-10-24,13:01～14:00,0.0311,0.0267,0.0287,
足立 (Adachi),2019-10-24,12:01～13:00,0.0299,0.0264,0.0285,
足立 (Adachi),2019-10-24,11:01～12:00,0.0305,0.0273,0.0286,
足立 (Adachi),2019-10-24,10:01～11:00,0.0310,0.0266,0.0284,
足立 (Adachi),2019-10-24,09:01～10:00,0.0306,0.0270,0.0284,
足立 (Adachi),2019-10-24,08:01～09:00,0.0300,0.0260,0.0284,
足立 (Adachi),2019-10-24,07:01～08:00,0.0313,0.0267,0.0284,
足立 (Adachi),2019-10-24,06:01～07:00,0.0299,0.0265,0.0284,
足立 (Adachi),2019-10-24,05:01～06:00,0.0306,0.0268,0.0287,
足立 (Adachi),2019-10-24,04:01～05:00,0.0305,0.0262,0.0282,
足立 (Adachi),2019-10-24,03:01～04:00,0.0310,0.0266,0.0285,
足立 (Adachi),2019-10-24,02:01～03:00,0.0305,0.0268,0.0286,
足立 (Adachi),2019-10-24,01:01～02:00,0.0300,0.0259,0.0285,
足立 (Adachi),2019-10-24,00:01～01:00,0.0308,0.0265,0.0287,
足立 (Adachi),2019-10-23,23:01～24:00,0.0310,0.0262,0.0288,
足立 (Adachi),2019-10-23,22:01～23:00,0.0307,0.0265,0.0288,
足立 (Adachi),2019-10-23,21:01～22:00,0.0307,0.0275,0.0288,
足立 (Adachi),2019-10-23,20:01～21:00,0.0310,0.0265,0.0286,
足立 (Adachi),2019-10-23,19:01～20:00,0.0306,0.0255,0.0284,
足立 (Adachi),2019-10-23,18:01～19:00,0.0304,0.0271,0.0286,
足立 (Adachi),2019-10-23,17:01～18:00,0.0301,0.0267,0.0287,
足立 (Adachi),2019-10-23,16:01～17:00,0.0322,0.0267,0.0289,
足立 (Adachi),2019-10-23,15:01～16:00,0.0307,0.0264,0.0289,
足立 (Adachi),2019-10-23,14:01～15:00,0.0309,0.0270,0.0287,
足立 (Adachi),2019-10-23,13:01～14:00,0.0305,0.0266,0.0289,
足立 (Adachi),2019-10-23,12:01～13:00,0.0311,0.0275,0.0290,
足立 (Adachi),2019-10-23,11:01～12:00,0.0308,0.0275,0.0290,
足立 (Adachi),2019-10-23,10:01～11:00,0.0311,0.0272,0.0292,
足立 (Adachi),2019-10-23,09:01～10:00,0.0313,0.0282,0.0295,
足立 (Adachi),2019-10-23,08:01～09:00,0.0318,0.0280,0.0298,
足立 (Adachi),2019-10-23,07:01～08:00,0.0318,0.0272,0.0297,
足立 (Adachi),2019-10-23,06:01～07:00,0.0317,0.0269,0.0291,
足立 (Adachi),2019-10-23,05:01～06:00,0.0312,0.0267,0.0290,
足立 (Adachi),2019-10-23,04:01～05:00,0.0304,0.0271,0.0289,
足立 (Adachi),2019-10-23,03:01～04:00,0.0304,0.0276,0.0288,
足立 (Adachi),2019-10-23,02:01～03:00,0.0310,0.0268,0.0288,
足立 (Adachi),2019-10-23,01:01～02:00,0.0302,0.0266,0.0285,
足立 (Adachi),2019-10-23,00:01～01:00,0.0308,0.0258,0.0287,
足立 (Adachi),2019-10-22,23:01～24:00,0.0307,0.0270,0.0285,
足立 (Adachi),2019-10-22,22:01～23:00,0.0316,0.0271,0.0286,
足立 (Adachi),2019-10-22,21:01～22:00,0.0303,0.0268,0.0287,
足立 (Adachi),2019-10-22,20:01～21:00,0.0306,0.0264,0.0282,
足立 (Adachi),2019-10-22,19:01～20:00,0.0303,0.0270,0.0286,
足立 (Adachi),2019-10-22,18:01～19:00,0.0320,0.0272,0.0288,
足立 (Adachi),2019-10-22,17:01～18:00,0.0307,0.0275,0.0292,
足立 (Adachi),2019-10-22,16:01～17:00,0.0311,0.0270,0.0288,
足立 (Adachi),2019-10-22,15:01～16:00,0.0310,0.0275,0.0292,
足立 (Adachi),2019-10-22,14:01～15:00,0.0329,0.0277,0.0301,
足立 (Adachi),2019-10-22,13:01～14:00,0.0373,0.0295,0.0337,
足立 (Adachi),2019-10-22,12:01～13:00,0.0394,0.0344,0.0360,
足立 (Adachi),2019-10-22,11:01～12:00,0.0390,0.0336,0.0362,
足立 (Adachi),2019-10-22,10:01～11:00,0.0489,0.0344,0.0401,
足立 (Adachi),2019-10-22,09:01～10:00,0.0495,0.0420,0.0457,
足立 (Adachi),2019-10-22,08:01～09:00,0.0479,0.0341,0.0389,
足立 (Adachi),2019-10-22,07:01～08:00,0.0404,0.0340,0.0374,
足立 (Adachi),2019-10-22,06:01～07:00,0.0504,0.0382,0.0445,
足立 (Adachi),2019-10-22,05:01～06:00,0.0511,0.0448,0.0480,
足立 (Adachi),2019-10-22,04:01～05:00,0.0525,0.0446,0.0486,
足立 (Adachi),2019-10-22,03:01～04:00,0.0505,0.0423,0.0466,
足立 (Adachi),2019-10-22,02:01～03:00,0.0478,0.0398,0.0443,
足立 (Adachi),2019-10-22,01:01～02:00,0.0460,0.0364,0.0410,
足立 (Adachi),2019-10-22,00:01～01:00,0.0406,0.0340,0.0366,
足立 (Adachi),2019-10-21,23:01～24:00,0.0365,0.0323,0.0347,
足立 (Adachi),2019-10-21,22:01～23:00,0.0360,0.0324,0.0342,
足立 (Adachi),2019-10-21,21:01～22:00,0.0346,0.0296,0.0324,
足立 (Adachi),2019-10-21,20:01～21:00,0.0319,0.0274,0.0297,
足立 (Adachi),2019-10-21,19:01～20:00,0.0313,0.0273,0.0291,
足立 (Adachi),2019-10-21,18:01～19:00,0.0316,0.0269,0.0292,
足立 (Adachi),2019-10-21,17:01～18:00,0.0313,0.0272,0.0292,
足立 (Adachi),2019-10-21,16:01～17:00,0.0317,0.0267,0.0289,
足立 (Adachi),2019-10-21,15:01～16:00,0.0309,0.0267,0.0289,
足立 (Adachi),2019-10-21,14:01～15:00,0.0312,0.0265,0.0286,
足立 (Adachi),2019-10-21,13:01～14:00,0.0309,0.0274,0.0288,
足立 (Adachi),2019-10-21,12:01～13:00,0.0306,0.0274,0.0289,
足立 (Adachi),2019-10-21,11:01～12:00,0.0311,0.0276,0.0290,
足立 (Adachi),2019-10-21,10:01～11:00,0.0304,0.0268,0.0289,
足立 (Adachi),2019-10-21,09:01～10:00,0.0311,0.0267,0.0287,
足立 (Adachi),2019-10-21,08:01～09:00,0.0305,0.0266,0.0289,
足立 (Adachi),2019-10-21,07:01～08:00,0.0309,0.0265,0.0285,
足立 (Adachi),2019-10-21,06:01～07:00,0.0303,0.0266,0.0288,
足立 (Adachi),2019-10-21,05:01～06:00,0.0305,0.0266,0.0290,
足立 (Adachi),2019-10-21,04:01～05:00,0.0313,0.0269,0.0291,
足立 (Adachi),2019-10-21,03:01～04:00,0.0304,0.0270,0.0288,
足立 (Adachi),2019-10-21,02:01～03:00,0.0310,0.0265,0.0288,
足立 (Adachi),2019-10-21,01:01～02:00,0.0310,0.0272,0.0292,
足立 (Adachi),2019-10-21,00:01～01:00,0.0308,0.0271,0.0290,
